Simultaneous Nadir Overpasses (SNOs) Predictions

Prediction of SNOs between LANDSAT-8 and METOP-B Satellite Orbit:

Table of predicted SNOs for the next 14.0 days since TLE Epoch: 1/14/2023
Index Date (LANDSAT-8) Time (LANDSAT-8) Lat,Lon (LANDSAT-8) SZA (LANDSAT-8 ) Date (METOP-B) Time (METOP-B) Lat,Lon (METOP-B) SZA (METOP-B ) Distance(km) Time Diff (sec)
1 01/15/2023 03:37:22 80.31, 155.92 102.52 01/15/2023 03:36:09 80.55, 154.77 102.63 34.34 73
2 01/15/2023 04:26:20 -81.13, -26.75 75.99 01/15/2023 04:26:19 -81.12, -26.93 76.01 3.26 1
3 01/15/2023 05:15:45 81.16, 141.32 104.07 01/15/2023 05:16:57 81.16, 141.47 104.11 2.45 72
4 01/17/2023 23:11:06 81.11,-128.21 103.42 01/17/2023 23:10:01 81.10,-128.35 103.38 2.61 65
5 01/18/2023 00:00:31 -81.13, 39.75 76.54 01/18/2023 00:00:39 -81.13, 39.66 76.55 1.69 8
6 01/20/2023 18:45:16 81.12, -61.61 102.84 01/20/2023 18:44:20 81.12, -61.51 102.83 1.74 56
7 01/20/2023 19:34:42 -81.14, 106.37 77.13 01/20/2023 19:34:59 -81.14, 106.53 77.10 2.79 17
8 01/23/2023 14:19:27 81.11, 4.74 102.17 01/23/2023 14:18:41 81.12, 4.86 102.17 2.21 46
9 01/23/2023 15:08:53 -81.14, 172.74 77.79 01/23/2023 15:09:21 -81.13, 172.56 77.80 3.11 28
10 01/26/2023 09:53:37 81.11, 71.21 101.47 01/26/2023 09:53:02 81.11, 71.15 101.45 1.05 35



Historial Predications of SNOs between LANDSAT-8 and METOP-B
